Change the Weather History Date:

Sunday, May 19, 2013

  Actual Average Record
Temperature  
Mean Temperature 69 °F 61 °F  
Max Temperature 77 °F 71 °F 82 °F (1949)
Min Temperature 60 °F 51 °F 32 °F (2002)
Degree Days  
Heating Degree Days 0 6  
Month to date heating degree days 88 140  
Since 1 July heating degree days 5374 5498  
Cooling Degree Days 4    
Month to date cooling degree days 23  
Year to date cooling degree days 43  
Growing Degree Days 18 (Base 50)    
Moisture  
Dew Point 61 °F    
Average Humidity 81    
Maximum Humidity 97    
Minimum Humidity 64    
Precipitation  
Precipitation T in 0.14 in 2.18 in (2000)
Month to date precipitation 1.92 2.47  
Sea Level Pressure  
Sea Level Pressure 30.04 in    
Wind  
Wind Speed 7 mph (SE)    
Max Wind Speed 15 mph    
Max Gust Speed 21 mph    
Visibility 10 miles    
Events      
T = Trace of Precipitation, MM = Missing Value Source: NWS Daily Summary

Daily Weather History Graph

Daily Weather History Graph

Search for Another Location

Airport or City:

Trip Planner

Search our weather history database for the weather conditions in past years. The results will help you decide how hot, cold, wet, or windy it might be!

Date:

Astronomy

May. 19, 2013 Rise Set
Actual Time 6:03 AM EDT 8:35 PM EDT
Civil Twilight 5:32 AM EDT 9:06 PM EDT
Nautical Twilight 4:53 AM EDT 9:45 PM EDT
Astronomical Twilight 4:10 AM EDT 10:29 PM EDT
Moon 2:37 PM EDT (5/19) 2:26 AM EDT (5/19)
Length of Visible Light 15h 34m
Length of Day
14h 32m
Waxing Gibbous, 65% of the Moon is Illuminated
May 19
Waxing Gibbous
May 25
Full
May 31
Last Quarter
Jun 8
New
Jun 16
First Quarter

Hourly Weather History & Observations

Time (EDT) Temp. Dew Point Humidity Pressure Visibility Wind Dir Wind Speed Gust Speed Precip Events Conditions
1:53 AM 63.0 °F 60.1 °F 90% 30.05 in 10.0 mi ESE 5.8 mph - N/A   Clear
2:53 AM 62.1 °F 60.1 °F 93% 30.04 in 9.0 mi ESE 5.8 mph - N/A   Clear
3:53 AM 61.0 °F 59.0 °F 93% 30.04 in 9.0 mi ESE 4.6 mph - N/A   Clear
4:53 AM 61.0 °F 59.0 °F 93% 30.04 in 10.0 mi ESE 6.9 mph - N/A   Clear
6:53 AM 61.0 °F 57.9 °F 90% 30.08 in 10.0 mi East 5.8 mph - N/A   Clear
8:53 AM 64.9 °F 59.0 °F 81% 30.10 in 10.0 mi ESE 8.1 mph - N/A   Overcast
9:53 AM 70.0 °F 61.0 °F 73% 30.09 in 10.0 mi ESE 6.9 mph - N/A   Overcast
10:53 AM 72.0 °F 61.0 °F 68% 30.07 in 10.0 mi ESE 9.2 mph - N/A   Overcast
11:03 AM 71.6 °F 60.8 °F 69% 30.09 in 10.0 mi South 5.8 mph - N/A   Overcast
11:53 AM 71.1 °F 60.1 °F 68% 30.07 in 10.0 mi SSE 8.1 mph - N/A   Overcast
12:44 PM 73.4 °F 62.6 °F 69% 30.05 in 10.0 mi ESE 15.0 mph 19.6 mph N/A   Scattered Clouds
12:53 PM 72.0 °F 61.0 °F 68% 30.05 in 10.0 mi South 9.2 mph 20.7 mph N/A   Mostly Cloudy
1:50 PM 73.4 °F 62.6 °F 69% 30.05 in 10.0 mi South 5.8 mph - N/A   Overcast
1:53 PM 73.0 °F 63.0 °F 71% 30.04 in 10.0 mi South 3.5 mph - N/A   Overcast
3:53 PM 73.9 °F 62.1 °F 66% 30.00 in 10.0 mi SSE 4.6 mph - N/A   Overcast
4:53 PM 75.0 °F 63.0 °F 66% 29.99 in 10.0 mi SSE 4.6 mph - N/A   Overcast
5:53 PM 75.9 °F 64.0 °F 67% 29.99 in 10.0 mi ESE 4.6 mph - N/A   Overcast
6:53 PM 75.0 °F 62.1 °F 64% 29.98 in 10.0 mi East 5.8 mph - N/A   Partly Cloudy
7:53 PM 73.0 °F 64.0 °F 73% 29.99 in 10.0 mi SE 6.9 mph - 0.00 in   Mostly Cloudy
8:53 PM 71.1 °F 63.0 °F 75% 29.99 in 10.0 mi ESE 6.9 mph - N/A   Overcast
9:53 PM 71.1 °F 63.0 °F 75% 30.01 in 10.0 mi East 9.2 mph - N/A   Overcast
10:53 PM 69.1 °F 63.0 °F 81% 30.03 in 10.0 mi ESE 6.9 mph - N/A   Overcast
11:53 PM 68.0 °F 63.0 °F 84% 30.01 in 10.0 mi SE 11.5 mph - N/A   Mostly Cloudy